Regional Weather Roundup
Issued by NWS

Home | Current Version | Previous Version | Graphics & Text | Print | Product List | Glossary On
Versions: 1 2 3 4 5 6 7 8 9 10 11 12 13 14 15 16 17 18 19 20 21 22 23 24 25 26 27 28 29 30 31 32 33 34 35 36 37 38 39 40 41 42 43 44 45 46 47 48 49 50
000
ASUS43 KLOT 021506
RWRIL

ILLINOIS REGIONAL WEATHER ROUNDUP
NATIONAL WEATHER SERVICE CHICAGO/ROMEOVILLE IL
1000 AM CDT TUE SEP 02 2014

NOTE: "FAIR" INDICATES FEW OR NO CLOUDS BELOW 12,000 FEET WITH NO
SIGNIFICANT WEATHER AND/OR OBSTRUCTIONS TO VISIBILITY.

* THESE STATIONS ARE NOT UNDER NWS QUALITY CONTROL. THEY ALSO MAY NOT
  REPORT WEATHER SUCH AS PRECIPITATION OR FOG.

ILZ001-002-007-009-015-016-024-021600-
NORTHWEST ILLINOIS

CITY           SKY/WX    TMP DP  RH WIND       PRES   REMARKS
MOLINE         MOSUNNY   73  63  70 NW9G21    29.94R
STERLING*      MOSUNNY   75  66  73 NW5       29.95R
SAVANNA*       RAIN      62  60  94 N13       29.94S
$$

ILZ003-004-008-010-011-017-018-021600-
NORTH CENTRAL ILLINOIS

CITY           SKY/WX    TMP DP  RH WIND       PRES   REMARKS
ROCKFORD       PTSUNNY   73  63  70 NW7       29.94R
FREEPORT*      PTSUNNY   64  56  77 W9G21     29.97R
ROCHELLE*      MOSUNNY   72  63  74 CALM      29.94R
DE KALB*       MOSUNNY   72  61  69 CALM      29.93R
PERU*          MOSUNNY   74  66  75 CALM      29.93R
$$

ILZ005-006-012>014-019>023-021600-
NORTHEAST ILLINOIS

CITY           SKY/WX    TMP DP  RH WIND       PRES   REMARKS
CHICAGO-OHARE  PTSUNNY   75  62  64 W3        29.91R
CHICAGO-MIDWAY PTSUNNY   77  64  64 CALM      29.91R
AURORA         MOSUNNY   74  64  71 W3        29.92R
LANSING*         N/A    N/A N/A N/A MISG        N/A
JOLIET*        PTSUNNY   73  66  77 CALM      29.92R
WAUKEGAN       MOSUNNY   74  62  66 CALM      29.90R
DUPAGE AIRPORT MOSUNNY   76  65  68 VRB3      29.91R
KANKAKEE*      CLOUDY    72  69  93 SW5       29.93R
WHEELING       MOSUNNY   76  64  66 W3        29.92R
MORRIS*        PTSUNNY   74  68  80 CALM      29.91S
ROMEOVILLE*    MOSUNNY   74  67  79 CALM      29.92R
NORTHERLY ISL    N/A     74  63  68 NE5         N/A
$$

LMZ740>746-021600-
SOUTHERN LAKE MICHIGAN

STATION/POSITION SKY/WX   TEMP    WIND        PRES    VSBY  WAVE
                          AIR SEA DIR/SP/G                  HT/PER
                          (F)     (DEG/KT/KT) (MB)    (MI)  (FT/S)
SOUTHERN BUOY              69 70  300/  2/  4 1012.3R         1
WAUKEGAN HARBOR            73        CALM       N/A
HARRISON CRIB              70     340/  4/  5   N/A
BURNHAM HARBOR             73      60/  3/  5   N/A
CALUMET HARBOR             73     190/  5/  6 1011.8R
MICHIGAN CITY              70     220/ 10/ 11   N/A
MICHIGAN CITY 6N           71 72  240/  8/ 10   N/A           1/ 2
ST. JOSEPH                 71 72  300/  2/  4   N/A           1/ 3
$$

ILZ025>027-034>036-040-047-049-050-058-095>099-021600-
WEST-CENTRAL ILLINOIS

CITY           SKY/WX    TMP DP  RH WIND       PRES   REMARKS
QUINCY         CLOUDY    73  69  87 SW5       29.95S
GALESBURG*     CLOUDY    74  70  87 W3        29.95R
MACOMB*        PTSUNNY   73  69  85 W6        29.97R
JACKSONVILLE*  CLOUDY    74  70  87 SW5       29.97R
PITTSFIELD*    CLOUDY    74  68  83 W6        29.97R
$$

ILZ028>032-037-038-041>044-048-051>054-059>061-021600-
CENTRAL ILLINOIS

CITY           SKY/WX    TMP DP  RH WIND       PRES   REMARKS
PONTIAC        PTSUNNY   75  72  88 W7        29.92R
DECATUR        LGT RAIN  71  69  93 SW6       29.96S
PEORIA         CLOUDY    77  68  73 W6        29.94R
LACON*         PTSUNNY   73  67  83 SW5       29.93R
LINCOLN*       CLOUDY    74  68  82 SW5       29.93R
SPRINGFIELD    CLOUDY    73  68  84 W6        29.96R
TAYLORVILLE    CLOUDY    70  68  94 SW3       29.96R
$$

ILZ033-039-045-046-055>057-062-063-021600-
EAST-CENTRAL ILLINOIS

CITY           SKY/WX    TMP DP  RH WIND       PRES   REMARKS
CHAMPAIGN      CLOUDY    71  68  90 SW9       29.96R
DANVILLE*      CLOUDY    69  67  93 W9        29.94R FOG
RANTOUL*       CLOUDY    72  67  85 SW7       29.96S
MATTOON        CLOUDY    71  68  90 SW5       29.96R
PARIS*         CLOUDY    72  69  90 W7        29.97R
$$

ILZ079-100>102-021600-
SOUTHWEST ILLINOIS

CITY           SKY/WX    TMP DP  RH WIND       PRES   REMARKS
ALTON          CLOUDY    72  70  94 W7        29.96R
BELLEVILLE     CLOUDY    74  73  95 VRB2      29.95R
CAHOKIA*       MOSUNNY   75  72  88 W7        29.95R
SPARTA*        CLOUDY    75  71  87 W3        29.96S
$$

ILZ064>066-069>071-074>076-080>082-084>086-088>090-092>094-021600-
SOUTH-CENTRAL ILLINOIS

CITY           SKY/WX    TMP DP  RH WIND       PRES   REMARKS
CARBONDALE     CLOUDY    78  73  84 SW9       29.96R HX  81
CAIRO*         CLOUDY    80  72  75 SW7       29.97S HX  84
EFFINGHAM*     LGT RAIN  70  67  89 CALM      29.96R
MARION         PTSUNNY   79  73  83 SW9       29.96S HX  82
MT. VERNON     CLOUDY    75  70  83 S6        29.96S
CENTRALIA*     CLOUDY    73  70  88 SW9       29.96R
SALEM*         LGT RAIN  74  71  91 S5        29.96R
METROPOLIS*    CLOUDY    80  74  81 SW7       29.98S HX  84
$$

ILZ067-068-072-073-078-083-087-091-021600-
SOUTHEAST ILLINOIS

CITY           SKY/WX    TMP DP  RH WIND       PRES   REMARKS
LAWRENCEVILLE  CLOUDY    72  70  93 S9        29.96R
FLORA*         PTSUNNY   74  70  89 S6        29.96R
FAIRFIELD*     CLOUDY    75  73  94 S8        29.96R
HARRISBURG*    CLOUDY    79  76  91 SW10      29.96F HX  83
ROBINSON*      LGT RAIN  72  70  96 S8        29.96R
CARMI*         CLOUDY    77  74  92 S7        29.95S
$$

ABBREVIATIONS USED IN REMARKS
   TC - TEMPERATURE IN CELSIUS
  WCI - WIND CHILL INDEX
   HX - HEAT INDEX
  VSB - VISIBILITY
$$



USA.gov is the U.S. government's official web portal to all federal, state and local government web resources and services.